Regional Weather Roundup
Issued by NWS Little Rock, AR

Home | Current Version | Previous Version | Graphics & Text | Print | Product List | Glossary On
Versions: 1 2 3 4 5 6 7 8 9 10 11 12 13 14 15 16 17 18 19 20 21 22 23 24 25 26 27 28 29 30 31 32 33 34 35 36 37 38 39 40 41 42 43 44 45 46 47 48 49 50
000
ASUS44 KLZK 160705
RWRLZK

WEATHER ROUNDUP FOR ARKANSAS
NATIONAL WEATHER SERVICE LITTLE ROCK AR
100 AM CST MON JAN 16 2017

NOTE: "FAIR" INDICATES FEW OR NO CLOUDS BELOW 12,000 FEET WITH NO
SIGNIFICANT WEATHER AND/OR OBSTRUCTIONS TO VISIBILITY.

ARZ001-003-010-029-160800-
NORTHWEST ARKANSAS

CITY           SKY/WX    TMP DP  RH WIND       PRES   REMARKS
FAYETTEVILLE   CLOUDY    58  55  90 SE12      29.98F
FORT SMITH     RAIN      49  47  93 E13       30.01F FOG
HARRISON       FOG       41  41 100 SE10      30.08S VSB 1/2
BENTONVILLE    CLOUDY   N/A N/A N/A E8        29.99F
ROGERS         LGT RAIN  47  47 100 E12       30.00F
SILOAM SPGS    CLOUDY    55  52  88 SE9       29.97F
HIGHFILL       CLOUDY    51  50  96 E9        29.98F
$$

ARZ004-005-016-160800-
NORTH CENTRAL ARKANSAS

CITY           SKY/WX    TMP DP  RH WIND       PRES   REMARKS
BATESVILLE     CLOUDY    43  43 100 E5        30.14F VSB 1/4
FLIPPIN        CLOUDY    43  37  81 E6        30.10F
MTN HOME       CLOUDY    41  41 100 SE7       30.10F
$$

ARZ040-041-160800-
WEST CENTRAL ARKANSAS

CITY           SKY/WX    TMP DP  RH WIND       PRES   REMARKS
MENA           CLOUDY    57  55  94 SE8       30.02S
MOUNT IDA      CLOUDY    50  49  96 CALM      30.02F
$$

ARZ009-017-025-026-028-160800-
NORTHEAST ARKANSAS

CITY           SKY/WX    TMP DP  RH WIND       PRES   REMARKS
JONESBORO      FOG       45  44  97 NE9       30.15F VSB 1/2
NEWPORT        FOG       44  44 100 NE6         N/A  VSB 1/4
WALNUT RIDGE   CLOUDY    43  39  87 NE10      30.15F VSB 1/2
BLYTHEVILLE    CLOUDY    48  47  96 E8        30.17F
$$

ARZ022-023-033-042-044-160800-
CENTRAL ARKANSAS

CITY           SKY/WX    TMP DP  RH WIND       PRES   REMARKS
LITTLE ROCK    FOG       44  44 100 E7        30.11F VSB 1/4
N LITTLE ROCK    N/A     44  44  98 E7        30.13F
JACKSONVILLE   CLOUDY    45  45 100 E6        30.10F FOG
SEARCY         FOG       45  45 100 NE7       30.14F VSB 1/2
HOT SPRINGS    CLOUDY    49  48  97 E9        30.07F
RUSSELLVILLE   CLOUDY    45  43  93 E7        30.08F
CLINTON        CLOUDY    45  45 100 CALM      30.12S
$$

ARZ036-160800-
EAST ARKANSAS

CITY           SKY/WX    TMP DP  RH WIND       PRES   REMARKS
WEST MEMPHIS   FOG       50  50 100 NE5       30.13F VSB 1/4
$$

ARZ050-053-066-070-073-160800-
SOUTHWEST ARKANSAS

CITY           SKY/WX    TMP DP  RH WIND       PRES   REMARKS
ARKADELPHIA    CLOUDY    51  50  96 NE3       30.07F
CAMDEN         LGT RAIN  54  50  87 E3        30.05F
TEXARKANA      LGT RAIN  60  60 100 VRB5      30.01F
EL DORADO      CLOUDY    59  57  93 SE7       30.05F
DE QUEEN       RAIN      56  56 100 E10       29.98F FOG
$$

ARZ056-057-069-160800-
SOUTHEAST ARKANSAS

CITY           SKY/WX    TMP DP  RH WIND       PRES   REMARKS
PINE BLUFF     FOG       48  48 100 NE6       30.10F VSB 1/4
STUTTGART      CLOUDY    46  41  81 NE8       30.13F VSB 1/2
MONTICELLO     MOCLDY    51  50  96 E5        30.09F

$$





USA.gov is the U.S. government's official web portal to all federal, state and local government web resources and services.